星链-35703(STARLINK-35703)

导读

STARLINK-35703是美国于2025年12月8日发射的星链系列卫星,星链计划是SpaceX打造的低轨卫星互联网项目,旨在为全球提供高速互联网接入服务。该卫星加入星座后,将进一步扩充星链卫星网络规模,提升全球尤其是偏远地区的网络覆盖能力与服务容量。

基本信息
目录编号:
66970
目录名称:
STARLINK-35703
国际标识:
2025-288M
轨道中心:
EARTH
卫星名称:
星链-35703
卫星全名:
星链-35703(STARLINK-35703)
卫星状态:
在轨 (已飞行270 天)
发射日期:
2025-12-08 UTC
国别 :
美国 (US)
星等 :
--
轨道信息
数据来源 国际轨道数据
星历时间: 2026-09-03T23:02:53+0800
20小时前
查看轨道信息
半长轴: 6861.218km
偏心率: 0.0001101
轨道倾角: 43.000°
近地点辐角 260.596°
升交点赤经 98.293°
平近点角 99.476°
近地点: 482.325km
远地点: 483.837km
周期: 94.267分钟
每日圈数: 15.275694
详细信息
固有亮度:
5
最大亮度:
2.5
卫星平台:
Starlink V1.0
覆盖范围:
全球
运营商:
太空探索技术公司
运营商所在国:
美国
制造商(研发单位):
太空探索技术公司
制造商所在国:
美国
使用方式:
暂无
卫星简介
Starlink 计划是 SpaceX 推出的全球卫星互联网项目,通过发射低轨道卫星,为全球尤其是偏远地区提供高速、低延迟的互联网服务。自 2019 年起,Starlink 已部署数千颗卫星,旨在缩小全球数字鸿沟,推动互联网普及。该项目还为军事、航空等行业提供通信支持,带来广泛经济效益。
2D轨道图
3D轨道图
轨道高度分析图
轨道倾角分析图
轨道综合分析图
查看轨道综合分析图
交会数据列表
事件ID 空间交会对象 最接近时刻(TCA) 交会距离 交会风险概率(CRP) 交会风险指数(CRI) 操作
CDM_260906-184405-957006-697021
2026-09-06T
18:44:26+0000
0.262 km
中距离
2.318779E-4 高风险 0.82
CDM_260903-144006-697006-704721
2026-09-03T
14:40:41+0000
0.766 km
远距离
1.388839E-5 中风险 0.58
CDM_260829-055206-289606-697021
2026-08-29T
05:52:31+0000
1.734 km
极远距离
2.135468E-6 低风险 0.42
CDM_260829-080905-788206-697021
2026-08-29T
08:09:08+0000
2.189 km
极远距离
1.560506E-6 低风险 0.39
CDM_260905-095206-393506-697021
2026-09-05T
09:52:42+0000
2.343 km
极远距离
1.525519E-6 低风险 0.39
CDM_260829-094305-788206-697021
2026-08-29T
09:43:17+0000
2.872 km
极远距离
9.846457E-7 极低风险 0.35
CDM_260903-130606-697006-704721
2026-09-03T
13:06:32+0000
2.058 km
极远距离
6.931235E-7 极低风险 0.32
CDM_260906-171005-957006-697021
2026-09-06T
17:10:17+0000
2.418 km
极远距离
5.072161E-7 极低风险 0.29
CDM_260906-201805-957006-697021
2026-09-06T
20:18:35+0000
2.770 km
极远距离
4.223961E-7 极低风险 0.28